COSMOS 1275 DEB, 12725

Orbit data source: Space-Track

COSMOS 1275 DEB, 12725 is space debris in LEO originally from a launch on Thu, 04 Jun 1981 UTC launched from the Plesetsk Missile And Space Complex (PKMTR). Debris objects in space refer to the collection of defunct objects orbiting the Earth. Examples of debris include non-operational satellites, rocket bodies, and fragments generated from explosions, collisions, or faulty payload assembly.

Loading next visibility...
Identifier
12725, 1981-053BS
Orbit
LEO
Country
Flag of CISCIS
Related business
Manufacturer
Unknown
Mission
Spacecraft
Bus & Motor
Unknown
Mass
Unknown
Launch date (UTC)
1981-06-04 (45 years ago)
Launch vehicle
Unknown
Launch site
Plesetsk Missile And Space Complex (PKMTR)
Object type
Payload
Rocket body
Debris
Shape & HBR
Unknown shape, 0.1 m
Radar Cross Section
Small (<0.1 m²)

Expand to show TLE details & history
Last TLE update: 9 hours ago

TLE from 9 hours ago
0 COSMOS 1275 DEB
1 12725U 81053BS  26034.55981263  .00001532  00000-0  12932-2 0  9998
2 12725  83.1354  72.2518 0090974  30.4406 133.8504 13.85252337223060
Epoch: 2026-02-03T13:26Z
TLE epoch observation values (Epoch: 2026-02-03T13:26:07.811Z)
Latitude
14.82706°
Longitude
-84.83651°
Altitude
994.005 km
Speed
7.332 km/s
True Right ascension
16h 41m 44s
True Declination
14° 44' 42"
Sunlit
Object was in daylight at epoch
Visualization orbit readout
Latitude
Unknown
Longitude
Unknown
Altitude
Unknown
Speed
Unknown
Apparent Right ascension
Unknown
Apparent Declination
Unknown
Sunlit
N/A
Visualization observer readout
Local Sidereal Time
00:15:07
Azimuth
Unknown
Elevation
Unknown
Doppler factor
Unknown
Orbital elements
Apogee altitude
1,009.041 km
Perigee altitude
875.845 km
Semi-major axis
7,320.58 km
Eccentricity
0.0091
Inclination
83.1354°
RAAN
72.2518°
Arg. of periapsis
30.4406°
True anomaly
134.59629°
Mean anomaly
133.8504°
Eccentric anomaly
134.22393°
Mean motion
3.46517 °/min
Orbital period
103.89 mins
BSTAR
0.0012932
Loading maneuver chart data...
Computing Atmospheric mass density...
Loading historical data...
Loading historical data...
Loading historical data...
Loading historical data...
Loading historical data...
Loading historical data...
Loading historical data...

Documentation

Showing up to 5 results
|